Weather History for Valdosta Regional, GA

Change the Weather History Date:

Monday, February 4, 2013

  Actual Average Record
Temperature  
Mean Temperature 52 °F 52 °F  
Max Temperature 68 °F 64 °F 86 °F (2014)
Min Temperature 35 °F 40 °F 67 °F (2014)
Degree Days  
Heating Degree Days 13 13  
Month to date heating degree days 58 54  
Since 1 July heating degree days 687 1123  
Growing Degree Days 1 (Base 50)    
Moisture  
Dew Point 35 °F    
Average Humidity 59    
Maximum Humidity 89    
Minimum Humidity 28    
Precipitation  
Precipitation 0.00 in - 0.00 in (2014)
Month to date precipitation T  
Year to date precipitation 0.76  
Sea Level Pressure  
Sea Level Pressure 30.12 in    
Wind  
Wind Speed 2 mph (South)    
Max Wind Speed 10 mph    
Max Gust Speed 14 mph    
Visibility 10 miles    
Events      
T = Trace of Precipitation, MM = Missing Value Source: NWS Daily Summary

Daily Weather History Graph

Daily Weather History Graph

Search for Another Location

Airport:

Trip Planner

Search our weather history database for the weather conditions in past years. The results will help you decide how hot, cold, wet, or windy it might be!

Date:

Astronomy

Feb. 04, 2013 Rise Set
Actual Time 7:22 AM EST 6:11 PM EST
Civil Twilight 6:57 AM EST 6:37 PM EST
Nautical Twilight 6:28 AM EST 7:05 PM EST
Astronomical Twilight 6:00 AM EST 7:34 PM EST
Moon 1:52 AM EST (2/4) 12:40 PM EST (2/4)
Length of Visible Light 11h 39m
Length of Day
10h 49m
Last Quarter, 37% of the Moon is Illuminated
Feb 4
Last Quarter
Feb 10
New
Feb 17
First Quarter
Feb 25
Full
Mar 4
Last Quarter

Hourly Weather History & Observations

Time (EST) Temp. Dew Point Humidity Pressure Visibility Wind Dir Wind Speed Gust Speed Precip Events Conditions
12:53 AM 37.9 °F 34.0 °F 86% 30.14 in 10.0 mi Calm Calm - N/A   Clear
1:53 AM 37.9 °F 33.1 °F 83% 30.14 in 10.0 mi Calm Calm - N/A   Clear
2:53 AM 37.9 °F 33.1 °F 83% 30.12 in 10.0 mi Calm Calm - N/A   Clear
3:53 AM 36.0 °F 32.0 °F 86% 30.12 in 10.0 mi Calm Calm - N/A   Clear
6:53 AM 36.0 °F 32.0 °F 86% 30.16 in 10.0 mi Calm Calm - N/A   Clear
7:53 AM 37.9 °F 34.0 °F 86% 30.16 in 10.0 mi Calm Calm - N/A   Clear
8:53 AM 46.9 °F 39.0 °F 74% 30.16 in 10.0 mi Calm Calm - N/A   Clear
9:53 AM 54.0 °F 33.1 °F 45% 30.17 in 10.0 mi NE 3.5 mph - N/A   Mostly Cloudy
10:53 AM 59.0 °F 28.9 °F 32% 30.16 in 10.0 mi ESE 5.8 mph - N/A   Mostly Cloudy
11:53 AM 61.0 °F 28.9 °F 30% 30.15 in 10.0 mi South 6.9 mph - N/A   Mostly Cloudy
12:53 PM 64.9 °F 30.0 °F 27% 30.13 in 10.0 mi South 5.8 mph - N/A   Mostly Cloudy
1:53 PM 66.0 °F 32.0 °F 28% 30.11 in 10.0 mi South 4.6 mph - N/A   Mostly Cloudy
2:53 PM 66.0 °F 32.0 °F 28% 30.10 in 10.0 mi Variable 3.5 mph - N/A   Mostly Cloudy
3:53 PM 64.0 °F 33.1 °F 31% 30.11 in 10.0 mi SSW 4.6 mph - N/A   Mostly Cloudy
4:53 PM 64.0 °F 34.0 °F 33% 30.10 in 10.0 mi Calm Calm - N/A   Mostly Cloudy
5:53 PM 61.0 °F 37.9 °F 42% 30.09 in 10.0 mi Calm Calm - N/A   Mostly Cloudy
6:53 PM 55.0 °F 39.0 °F 55% 30.09 in 10.0 mi Calm Calm - N/A   Mostly Cloudy
7:53 PM 54.0 °F 39.0 °F 57% 30.10 in 10.0 mi Calm Calm - N/A   Clear
8:53 PM 55.0 °F 37.9 °F 53% 30.11 in 10.0 mi Calm Calm - N/A   Clear
9:53 PM 53.1 °F 39.0 °F 59% 30.10 in 10.0 mi SSW 3.5 mph - N/A   Clear
10:53 PM 51.1 °F 39.9 °F 66% 30.09 in 10.0 mi Calm Calm - N/A   Clear
11:53 PM 48.9 °F 39.9 °F 71% 30.09 in 10.0 mi South 3.5 mph - N/A   Clear